Location: Nied?wied?
(53.3665°N, 14.8184°E)
Time: 18:25:35
(UTC+00:00)

ISS - Pass Details

Date: 17 May 2021
Orbit: 417 x 422 km, 51.6° (Epoch: 14 June)

Event Time Altitude Azimuth Distance (km) Brightness Sun altitude
Rises 23:16:57 0° 276° (W) 2,371 0.1 -17.0°
Reaches altitude 10° 23:19:05 10° 271° (W) 1,507 -1.0 -16.9°
Maximum altitude 23:22:22 49° 196° (SSW) 552 -3.6 -16.9°
Enters shadow 23:22:27 49° 190° (S) 553 -3.6 -16.9°
